Simultaneous Nadir Overpasses (SNOs) Predictions

Prediction of SNOs between METOP-B and TERRA Satellite Orbit:

Table of predicted SNOs for the next 14.0 days since TLE Epoch: 4/25/2015
Index Date (METOP-B) Time (METOP-B) Lat,Lon (METOP-B) SZA (METOP-B ) Date (TERRA) Time (TERRA) Lat,Lon (TERRA) SZA (TERRA ) Distance(km) Time Diff (sec)
1 04/25/2015 15:12:47 81.30, -1.20 70.97 04/25/2015 15:14:00 81.30, -1.24 71.00 0.55 73
2 04/25/2015 16:03:27 -81.30, 166.58 108.99 04/25/2015 16:03:26 -81.31, 166.71 108.97 2.42 1
3 04/25/2015 16:54:04 81.32, -24.75 71.17 04/25/2015 16:52:50 81.36, -24.67 71.17 4.99 74
4 04/28/2015 11:37:48 -81.30,-127.12 109.89 04/28/2015 11:37:58 -81.30,-127.11 109.88 0.18 10
5 04/28/2015 12:28:27 81.31, 40.75 70.17 04/28/2015 12:27:24 81.31, 40.76 70.15 0.63 63
6 05/01/2015 07:12:10 -81.30, -60.90 110.77 05/01/2015 07:12:41 -81.30, -60.80 110.74 1.82 31
7 05/01/2015 08:02:49 81.31, 106.94 69.29 05/01/2015 08:02:07 81.31, 107.08 69.29 2.59 42
8 05/04/2015 02:46:32 -81.29, 5.22 111.62 05/04/2015 02:47:35 -81.29, 5.26 111.59 0.83 63
9 05/04/2015 03:37:11 81.30, 173.05 68.43 05/04/2015 03:37:01 81.30, 173.16 68.44 1.78 10
10 05/06/2015 23:11:31 81.30,-120.53 67.65 05/06/2015 23:12:04 81.30,-120.64 67.65 1.99 33




NCC Satellite Simultaneous Nadir Overpasses (SNOs) Prediction Service
